Regional Weather Roundup
Issued by NWS New Orleans/Baton Rouge, LA

Home | Current Version | Previous Version | Text Only | Print | Product List | Glossary On
Versions: 1 2 3 4 5 6 7 8 9 10 11 12 13 14 15 16 17 18 19 20 21 22 23 24 25 26 27 28 29 30 31 32 33 34 35 36 37 38 39 40 41 42 43 44 45 46 47 48 49 50
000
ASUS44 KLIX 021912
RWRLIX
NEW ORLEANS REGIONAL WEATHER ROUNDUP
NATIONAL WEATHER SERVICE NEW ORLEANS LA
200 PM CDT SUN AUG 02 2015

NOTE: "FAIR" INDICATES FEW OR NO CLOUDS BELOW 12,000 FEET WITH NO
      SIGNIFICANT WEATHER AND/OR OBSTRUCTIONS TO VISIBILITY.
      SKY/WX - SKY CONDITION AND SIGNIFICANT WEATHER.
      TMP - AIR TEMPERATURE.     DP    - DEWPOINT TEMPERATURE.
      RH  - RELATIVE HUMIDITY.   PRES  - PRESSURE.
      HI  - HEAT INDEX.          WCI   - WIND CHILL INDEX.

*  THESE STATIONS ARE NOT NWS OR FAA STATIONS AND ARE NOT UNDER
   NWS QUALITY CONTROL.

LAZ038-040-048-061>063-065>067-069-022000-
SOUTHEAST LOUISIANA

CITY           SKY/WX    TMP DP  RH WIND       PRES   REMARKS
N.O. AUDUBON     N/A     96  67  37 MISG        N/A  HX 100
N.O. INTL ARPT MOSUNNY   94  60  32 NE8       29.89F
N.O. LAKEFRONT MOSUNNY   93  60  33 NE5       29.90F
N.O. DOWNTOWN*   N/A     95  59  30 NW6       29.90F
RESERVE*         N/A     96  62  32 NW5       29.89F HX  96
SLIDELL        SUNNY     95  64  35 NE6       29.88F HX  97
BATON ROUGE    SUNNY     95  63  34 VRB7      29.89F HX  96
BOOTHVILLE     CLOUDY    91  72  53 VRB5      29.91F HX  98
BELLE CHASSE   MOSUNNY   93  66  40 E8        29.89F HX  96
BOGALUSA*        N/A     94  65  38 CALM      29.91F HX  96
GALLIANO*      NOT AVBL
NEW ROADS*       N/A    N/A N/A N/A N5        29.89F
GONZALES*        N/A     93  61  34 CALM      29.88F
HAMMOND*       MOSUNNY   97  57  26 N8        29.90F HX  95
HOUMA*         MOSUNNY   93  66  40 N3        29.90S HX  96
PORT FOURCHON* CLEAR     90  72  55 NE5       29.90F HX  96

$$

MSZ070-080>082-022000-
SOUTHERN MISSISSIPPI

CITY           SKY/WX    TMP DP  RH WIND       PRES   REMARKS
MCCOMB         SUNNY     94  66  39 VRB3G17   29.91F HX  97
GULFPORT       MOSUNNY   92  72  51 E9        29.87F HX  99
BILOXI         PTSUNNY   91  74  58 S7        29.88F HX 100
PASCAGOULA     MOSUNNY   94  74  52 N6        29.88F HX 104
STENNIS ARPT*  MOSUNNY   91  59  33 CALM      29.89F

$$

COASTAL OBSERVATIONS
LAKE AND NEARSHORE STATIONS

STATION/POSITION TIME  TEMP    WIND        PRES    WAVE
                       AIR SEA DIR/SP/G            HT/PER
                 (UTC) (F)     (DEG/KT/KT) (MB)    (FT/S)
PASCAGOULA       1800   92     160/  5/  9 1012.2
WAVELAND YACHT   1800   89 86  150/  2/  3 1013.0
GRAND ISLE       1800   90 90   50/  4/  6 1013.0
SOUTHWEST PASS   1800   95 87  330/  2/  3 1013.3
NEW CANAL        1800   87 89   30/  3/  4 1012.0
SHELL BEACH      1800   87 89  360/  4/  5 1012.4

OFFSHORE STATIONS

STATION/POSITION TIME  TEMP    WIND        PRES    WAVE
                       AIR SEA DIR/SP/G            HT/PER
                 (UTC) (F)     (DEG/KT/KT) (MB)    (FT/S)
64 S DAUPHIN ISL 1850   87 89  360/  6/  6 1012.4    2/ 3

$$



USA.gov is the U.S. government's official web portal to all federal, state and local government web resources and services.